DW6358 Weather Reports


Display with metric or nautical units.
time (UTC)temp
F
wind
direction
speed
MPH
gust
MPH
rain 1hr
in
rain 24hr
in
rain mn
in
humidity
%
barometer
mb
20260505024816 58 321 6.0 16.0 0.00 0.09 0.00 80 1023.5
20260505024313 58 350 11.0 16.0 0.00 0.09 0.00 78 1023.5
20260505023832 58 340 11.0 15.0 0.00 0.09 0.00 78 1023.5
20260505023331 58 8 11.0 15.0 0.00 0.09 0.00 77 1023.5
20260505022342 58 338 13.0 16.0 0.00 0.09 0.00 78 1023.6
20260505021818 58 337 11.0 16.0 0.00 0.09 0.00 76 1023.7
20260505021315 58 328 10.0 17.0 0.00 0.09 0.00 78 1023.8
20260505020831 58 334 11.0 16.0 0.00 0.09 0.00 77 1023.8
20260505020329 58 339 11.0 15.0 0.00 0.09 0.00 75 1023.9
20260505015850 58 335 11.0 15.0 0.00 0.09 0.00 77 1023.9
20260505014827 58 324 11.0 16.0 0.00 0.09 0.00 77 1023.9
20260505014323 58 322 12.0 16.0 0.00 0.09 0.00 78 1023.9
20260505013820 58 331 12.0 17.0 0.00 0.09 0.00 77 1024.0
20260505013319 58 335 12.0 16.0 0.00 0.09 0.00 77 1024.0
20260505012813 58 344 11.0 15.0 0.00 0.09 0.00 78 1024.0
20260505012332 58 349 10.0 15.0 0.00 0.09 0.00 79 1024.1
20260505011829 58 353 10.0 15.0 0.00 0.09 0.00 77 1024.1
20260505011348 58 325 11.0 15.0 0.00 0.09 0.00 75 1024.2
20260505010842 58 335 11.0 15.0 0.00 0.09 0.00 76 1024.2
20260505010340 58 328 11.0 14.0 0.00 0.09 0.00 75 1024.3
20260505005833 58 331 10.0 14.0 0.00 0.09 0.00 76 1024.3
20260505005330 58 12 10.0 14.0 0.00 0.09 0.00 74 1024.4
20260505004849 58 359 10.0 14.0 0.00 0.09 0.00 73 1024.5
20260505004346 58 337 9.0 14.0 0.00 0.09 0.00 75 1024.5
20260505003823 58 351 10.0 15.0 0.00 0.09 0.00 74 1024.6
20260505003339 58 343 10.0 15.0 0.00 0.09 0.00 75 1024.6
20260505002814 58 342 9.0 15.0 0.00 0.09 0.00 75 1024.6
20260505002332 59 339 10.0 14.0 0.00 0.09 0.00 76 1024.7
20260505001850 59 347 9.0 14.0 0.00 0.09 0.00 75 1024.6
20260505001326 59 323 10.0 14.0 0.00 0.09 0.00 74 1024.7
20260505000824 59 354 10.0 14.0 0.00 0.09 0.00 75 1024.7
20260505000322 59 360 10.0 14.0 0.00 0.09 0.00 75 1024.7
20260504235816 59 348 10.0 16.0 0.00 0.09 0.00 75 1024.7
20260504235314 59 337 10.0 16.0 0.00 0.09 0.00 75 1024.8
20260504234830 59 340 10.0 16.0 0.00 0.09 0.00 75 1024.7
20260504234330 59 335 8.0 15.0 0.00 0.09 0.00 75 1024.7
20260504233828 59 323 10.0 15.0 0.00 0.09 0.00 74 1024.8
20260504233327 59 337 9.0 15.0 0.00 0.09 0.00 75 1024.8
20260504232825 59 334 9.0 16.0 0.00 0.09 0.00 75 1024.8
20260504232322 59 345 9.0 16.0 0.00 0.09 0.00 75 1024.7
20260504231821 59 335 9.0 15.0 0.00 0.09 0.00 73 1024.8
20260504231319 59 349 10.0 15.0 0.00 0.09 0.00 73 1024.8
20260504230837 59 354 10.0 15.0 0.00 0.09 0.00 74 1024.8
20260504230334 59 338 11.0 14.0 0.00 0.09 0.00 75 1024.8
20260504225823 59 344 9.0 15.0 0.00 0.09 0.09 75 1024.8
20260504225321 59 356 10.0 15.0 0.00 0.09 0.09 77 1024.8
20260504224819 59 347 12.0 16.0 0.00 0.09 0.09 77 1024.9
20260504224316 59 334 12.0 16.0 0.00 0.09 0.09 77 1024.9
20260504223835 59 326 10.0 16.0 0.00 0.09 0.09 74 1024.9
20260504223328 59 316 10.0 16.0 0.00 0.09 0.09 76 1024.9
20260504222847 59 338 10.0 14.0 0.00 0.09 0.09 74 1024.9
20260504222344 59 15 10.0 14.0 0.00 0.09 0.09 75 1024.9
20260504221839 59 347 10.0 14.0 0.00 0.09 0.09 74 1024.9
20260504221317 59 329 10.0 14.0 0.00 0.09 0.09 75 1024.9
20260504220814 59 344 8.0 14.0 0.00 0.09 0.09 77 1024.9
20260504220334 59 342 9.0 14.0 0.00 0.09 0.09 76 1024.9
20260504215831 59 335 10.0 14.0 0.00 0.09 0.09 76 1024.9
20260504215328 59 333 9.0 14.0 0.00 0.09 0.09 75 1024.9
20260504214825 59 349 10.0 16.0 0.00 0.09 0.09 75 1024.9
20260504214323 59 328 11.0 16.0 0.00 0.09 0.09 73 1024.9
20260504213821 59 345 8.0 15.0 0.00 0.09 0.09 75 1024.8
20260504213319 59 345 11.0 16.0 0.00 0.09 0.09 76 1024.9
20260504212815 59 333 10.0 17.0 0.00 0.09 0.09 76 1024.9
20260504212314 59 349 11.0 17.0 0.00 0.09 0.09 75 1024.8
20260504211831 59 341 11.0 16.0 0.00 0.09 0.09 75 1024.8
20260504211328 59 342 11.0 15.0 0.00 0.09 0.09 76 1024.8
20260504210825 59 292 10.0 15.0 0.00 0.09 0.09 76 1024.8
20260504210324 59 342 10.0 16.0 0.00 0.09 0.09 76 1024.8
20260504205819 59 343 10.0 17.0 0.00 0.09 0.09 75 1024.7
20260504205317 59 354 11.0 17.0 0.00 0.09 0.09 76 1024.7
20260504204814 59 310 10.0 16.0 0.00 0.09 0.09 76 1024.6
20260504204332 59 333 11.0 16.0 0.00 0.09 0.09 76 1024.6
20260504203913 59 345 12.0 16.0 0.00 0.09 0.09 75 1024.5
20260504203328 59 338 12.0 16.0 0.00 0.09 0.09 75 1024.4
20260504202824 59 320 10.0 15.0 0.00 0.09 0.09 75 1024.3
20260504202322 59 318 11.0 16.0 0.00 0.09 0.09 75 1024.3
20260504201820 59 326 10.0 17.0 0.00 0.09 0.09 76 1024.3
20260504201318 59 321 13.0 17.0 0.00 0.09 0.09 75 1024.2
20260504200815 59 334 11.0 15.0 0.00 0.09 0.09 76 1024.1
20260504200334 59 352 12.0 18.0 0.00 0.09 0.09 74 1024.1
20260504195831 59 330 12.0 18.0 0.00 0.09 0.09 75 1024.1
20260504195329 59 300 12.0 16.0 0.00 0.09 0.09 76 1024.1
20260504194826 59 308 11.0 15.0 0.00 0.09 0.09 76 1024.0
20260504194324 59 349 10.0 15.0 0.00 0.09 0.09 75 1024.1
20260504193823 59 335 11.0 15.0 0.00 0.09 0.09 75 1023.9
20260504193320 59 327 11.0 16.0 0.00 0.09 0.09 75 1023.9
20260504192815 60 349 12.0 17.0 0.00 0.09 0.09 75 1023.9
20260504192313 60 357 11.0 17.0 0.00 0.09 0.09 76 1023.9
20260504191813 60 335 11.0 16.0 0.00 0.09 0.09 76 1023.9
20260504191329 60 341 10.0 16.0 0.00 0.09 0.09 75 1023.9
20260504190827 60 343 11.0 16.0 0.00 0.09 0.09 75 1023.8
20260504190326 60 351 12.0 16.0 0.00 0.09 0.09 75 1023.8
20260504185843 60 351 11.0 16.0 0.00 0.09 0.09 74 1023.7
20260504185318 61 306 11.0 16.0 0.00 0.09 0.09 73 1023.7
20260504184817 61 346 10.0 16.0 0.00 0.09 0.09 73 1023.7
20260504184313 61 347 11.0 16.0 0.00 0.09 0.09 72 1023.6
20260504183832 61 332 11.0 17.0 0.00 0.09 0.09 72 1023.7
20260504183330 61 328 14.0 17.0 0.00 0.09 0.09 72 1023.7
20260504182829 61 334 11.0 16.0 0.00 0.09 0.09 73 1023.7
20260504182326 61 335 12.0 17.0 0.00 0.09 0.09 72 1023.7
20260504181824 61 332 11.0 16.0 0.00 0.09 0.09 74 1023.7
20260504181344 61 331 12.0 16.0 0.00 0.09 0.09 74 1023.8
20260504180857 61 330 13.0 16.0 0.00 0.09 0.09 74 1023.8
20260504180352 61 340 11.0 15.0 0.00 0.09 0.09 75 1023.8
20260504175830 61 327 9.0 15.0 0.00 0.09 0.09 75 1023.8
20260504175327 61 332 11.0 15.0 0.00 0.09 0.09 74 1023.8
20260504174826 61 326 11.0 15.0 0.00 0.09 0.09 72 1023.8
20260504174323 61 348 12.0 16.0 0.00 0.09 0.09 73 1023.9
20260504173821 61 340 12.0 16.0 0.00 0.09 0.09 72 1023.9
20260504173321 61 346 11.0 16.0 0.00 0.09 0.09 72 1023.9
20260504172817 61 337 13.0 16.0 0.00 0.09 0.09 72 1023.9
20260504172334 61 332 10.0 16.0 0.00 0.09 0.09 75 1024.0
20260504171851 61 335 9.0 14.0 0.00 0.09 0.09 73 1024.0
20260504171349 62 328 11.0 14.0 0.00 0.09 0.09 71 1024.0
20260504170823 61 313 11.0 14.0 0.00 0.09 0.09 68 1024.0
20260504170322 62 337 9.0 14.0 0.00 0.09 0.09 69 1024.0
20260504160323 61 325 12.0 16.0 0.00 0.09 0.09 72 1023.9
20260504150833 61 333 10.0 13.0 0.00 0.09 0.09 70 1024.1
20260504150353 62 332 10.0 14.0 0.00 0.09 0.09 72 1024.0
20260504141320 61 333 11.0 15.0 0.00 0.09 0.09 73 1024.1
20260504140821 62 8 11.0 14.0 0.00 0.09 0.09 74 1024.1
20260504140353 61 325 11.0 16.0 0.00 0.09 0.09 74 1024.1
20260504130822 61 342 11.0 16.0 0.00 0.09 0.09 74 1024.3
20260504130342 61 330 12.0 16.0 0.00 0.09 0.09 74 1024.2
20260504110314 61 346 10.0 14.0 0.00 0.09 0.09 72 1024.4
20260504100332 61 17 8.0 13.0 0.00 0.10 0.09 73 1023.9
20260504081828 60 16 9.0 14.0 0.01 0.14 0.09 76 1023.4
20260504081326 60 305 8.0 14.0 0.01 0.14 0.09 77 1023.4
20260504080845 60 341 6.0 15.0 0.01 0.14 0.09 77 1023.3
20260504080341 60 63 8.0 15.0 0.01 0.14 0.09 78 1023.3
20260504070341 57 16 3.0 9.0 0.05 0.13 0.08 85 1022.8
20260504050320 55 33 3.0 9.0 0.03 0.08 0.03 90 1022.0
20260504045821 56 330 4.0 12.0 0.03 0.08 0.03 90 1022.0
20260504045319 56 359 5.0 22.0 0.03 0.08 0.03 89 1022.0
20260504044815 57 350 7.0 24.0 0.02 0.07 0.02 88 1021.9
20260504044313 58 354 16.0 21.0 0.00 0.05 0.00 87 1021.6
20260504043828 57 330 4.0 13.0 0.00 0.05 0.00 83 1021.8
20260504043347 58 350 6.0 16.0 0.00 0.05 0.00 84 1021.8
20260504042822 58 340 8.0 16.0 0.00 0.05 0.00 82 1021.8
20260504042339 59 335 11.0 13.0 0.00 0.05 0.00 79 1021.8
20260504041815 59 343 8.0 11.0 0.00 0.05 0.00 79 1021.8
20260504041332 59 330 7.0 12.0 0.00 0.05 0.00 79 1021.8
20260504040832 59 340 9.0 14.0 0.00 0.05 0.00 79 1021.9
20260504040331 59 353 10.0 14.0 0.00 0.05 0.00 78 1021.9
20260504035812 59 309 10.0 13.0 0.00 0.05 0.00 80 1021.9
20260504035351 59 328 11.0 13.0 0.00 0.05 0.00 78 1021.9
20260504034830 59 345 10.0 12.0 0.00 0.05 0.00 79 1021.8
20260504034348 59 332 9.0 12.0 0.00 0.05 0.00 77 1021.8
20260504033825 59 359 9.0 13.0 0.00 0.05 0.00 78 1021.9
20260504033342 59 327 10.0 13.0 0.00 0.05 0.00 77 1021.9
20260504032344 59 342 9.0 14.0 0.00 0.05 0.00 78 1021.8
20260504031820 59 338 11.0 14.0 0.00 0.05 0.00 77 1021.9
20260504031319 58 319 9.0 12.0 0.00 0.05 0.00 77 1021.9
20260504030817 58 334 8.0 11.0 0.00 0.05 0.00 78 1021.9
20260504030334 59 37 9.0 13.0 0.00 0.05 0.00 78 1021.9
20260504025832 59 320 9.0 13.0 0.00 0.05 0.00 80 1021.8
20260504025331 58 356 9.0 11.0 0.00 0.05 0.00 77 1021.9